Location: Brede
(50.9167°N, 0.6000°E)
Time: 18:09:10
(UTC+00:00)

Cosmos 1503 Rocket - Pass Details

Date: 08 August 2020
Orbit: 753 x 790 km, 74.0° (Epoch: 23 September)

Event Time Altitude Azimuth Distance (km) Brightness Sun altitude
Exits shadow 00:21:21 54° 159° (SSE) 956 4.1 -22.9°
Maximum altitude 00:22:19 65° 110° (ESE) 869 4.1 -22.9°
Drops below altitude 10° 00:27:39 10° 29° (NNE) 2,363 7.5 -22.8°
Sets 00:30:04 0° 27° (NNE) 3,294 8.5 -22.8°
